www.pogodaiklimat.ru
Время
и дата
19:53 18.10
20:53 18.10
21:53 18.10
22:53 18.10
23:53 18.10
00:53 19.10
01:53 19.10
02:53 19.10
03:53 19.10
04:53 19.10
05:53 19.10
06:53 19.10
07:53 19.10
08:53 19.10
09:53 19.10
10:53 19.10
11:53 19.10
12:53 19.10
13:53 19.10
14:53 19.10
15:53 19.10
16:53 19.10
17:53 19.10
18:53 19.10
19:53 19.10
20:53 19.10
21:53 19.10
22:53 19.10
23:53 19.10
00:53 20.10
01:53 20.10
02:53 20.10
03:53 20.10
04:53 20.10
05:53 20.10
06:46 20.10
06:53 20.10
07:53 20.10
08:53 20.10
09:53 20.10
10:53 20.10
11:53 20.10
12:53 20.10
13:53 20.10
14:53 20.10
15:53 20.10
16:53 20.10
17:53 20.10
Ветер
(напр.,м/с)
Видим. Явления Облачность Т
(С)
Тd
(С)
f
(%)
Тe
(С)
Тes
(С)
Комфортность P
(гПа)
Po
(гПа)
Тmin
(С)
Tmax
(С)
R
(мм)
R24
(мм)
S
(см)
ЮВ 1 16 км 5/0 7500 м
[Ci]
+17.8 +7.2 50 +18 +18 1016.2 996.7
ЮВ 2 16 км 8/0 7500 м
[Ci]
+18.9 +7.2 47 +19 +19 1016.1 996.7
Ю 2 16 км 8/0 7500 м
[Ci]
+18.3 +7.2 48 +18 +18 1016.3 997.1
Ю 2 16 км 8/0 7500 м
[Ci]
+18.3 +7.8 50 +18 +18 1016.4 997.4
Ю 2 16 км 8/0 9000 м
[Ci]
+17.8 +8.3 54 +17 +17 1016.2 997.1 +17.2 +21.1
Ю 2 16 км 10/0 6600 м
[Ci]
+17.8 +8.9 56 +18 +18 1015.9 996.7
Ю 2 16 км 10/0 6900 м
[Ci]
+17.2 +8.9 58 +17 +17 1015.5 996.4
Ю 2 16 км 8/0 6300 м
[Ci]
+17.2 +8.9 58 +17 +17 1015.2 996.1
Ю 2 16 км 8/0 7200 м
[Ci]
+16.7 +10.6 67 +16 +16 1015.4 996.1
ЮВ 2 16 км 8/0 7500 м
[Ci]
+15.6 +11.1 75 +15 +15 1016.0 996.7
ЮВ 2 16 км 8/0 7500 м
[Ci]
+16.1 +11.7 75 +15 +15 1015.9 996.7 +15.6 +17.8
ЮВ 1 16 км 8/0 6000 м
[Ac Ci]
+15.0 +11.1 77 +14 +14 1016.2 997.1
ЮВ 1 16 км 5/2 60 м
[Ac Ci]
+15.6 +11.7 78 +15 +15 1016.8 997.4
Ю 3 16 км 5/0 6000 м
[Ac Ci]
+18.9 +12.8 68 +19 +20 1017.4 998.1
Ю 3
{4}
16 км 8/0 6000 м
[Ac Ci]
+21.1 +13.3 61 +23 +24 комфорт 1017.4 998.4
Ю 4
{5}
16 км 2/0 6000 м
[Ac Ci]
+23.3 +13.3 53 +26 +27 жарко 1017.0 997.7
ЮВ 2
{4}
16 км 2/0 6000 м
[Ac Ci]
+24.4 +13.9 52 +27 +31 жарко 1016.3 997.1 +15.0 +24.4
ЮВ 3 16 км 2/0 6000 м
[Ac Ci]
+25.6 +12.8 45 +27 +30 жарко 1015.4 996.4
Ю 3 16 км 2/0 6000 м
[Ac Ci]
+26.1 +12.2 42 +28 +31 жарко 1014.4 995.4
Ю 4
{5}
16 км 2/0 6000 м
[Ac Ci]
+26.7 +12.2 41 +28 +30 жарко 1013.9 994.7
Ю 4
{5}
16 км 2/0 6000 м
[Ac Ci]
+26.7 +11.7 39 +28 +28 жарко 1013.6 994.4
Ю 4 16 км 2/0 6000 м
[Ac Ci]
+26.1 +12.2 42 +28 +28 жарко 1013.6 994.4
ЮВ 2
{4}
16 км 2/0 7500 м
[Ci]
+23.9 +12.2 48 +26 +26 жарко 1013.7 994.7 +23.9 +27.2
ЮВ 2 16 км 2/0 7500 м
[Ci]
+22.8 +12.8 53 +26 +26 жарко 1014.3 995.1
ЮВ 2 16 км 8/0 7500 м
[Ci]
+22.2 +12.2 53 +25 +25 комфорт 1014.9 995.7
ЮВ 2 16 км 8/0 7500 м
[Ci]
+20.6 +12.8 61 +23 +23 комфорт 1015.3 996.1
Ю 2 16 км 8/0 7500 м
[Ci]
+21.1 +13.9 63 +24 +24 комфорт 1015.6 996.4
Ю 2 16 км 8/0 9000 м
[Ci]
+20.6 +14.4 68 +23 +23 комфорт 1015.8 996.7
Ю 2 16 км 8/0 9000 м
[Ci]
+20.6 +15.0 70 +24 +24 комфорт 1016.0 997.1 +20.6 +23.9
Ю 3 16 км 8/0 9000 м
[Ci]
+20.6 +16.1 75 +24 +24 комфорт 1016.2 997.1
Ю 3 16 км 8/0 9000 м
[Ci]
+20.0 +16.7 81 +22 +22 комфорт 1016.7 997.7
Ю 2 16 км 8/8 390 м
[Ci]
+19.4 +17.2 87 +21 +21 комфорт 1016.5 997.4
Ю 4
{5}
16 км 10/8 360 м
[Ci]
+20.6 +17.8 84 +24 +24 комфорт 1016.4 997.4
Ю 4 16 км 10/8 360 м
[Ci]
+20.6 +17.8 84 +24 +24 комфорт 1016.7 997.7
Ю 2 16 км 10/10 390 м +20.6 +17.8 84 +24 +24 комфорт 1017.5 998.4 +19.4 +21.1
Ю 2 16 км 5/5 420 м +20.0 +17.8 87 +23 +23 комфорт 998.4
Ю 2 16 км 5/2 420 м
[Ci]
+20.0 +17.8 87 +23 +23 комфорт 1017.6 998.4
Ю 2 16 км 2/2 510 м
[Ci]
+21.1 +18.3 84 +25 +25 комфорт 1018.0 998.7
Ю 3 16 км 2/2 600 м
[Ci]
+23.3 +18.3 73 +29 +29 душно 1018.7 999.4
ЮЗ 3 16 км 5/2 600 м
[Ci]
+25.0 +18.3 66 +29 +30 душно 1018.7 999.7
ЮЗ 2 16 км 8/8 900 м
[Ci]
+26.1 +17.8 60 +30 +31 душно 1018.6 999.4
ЮЗ 3 16 км 8/8 930 м +26.7 +18.3 60 +31 +32 душно 1018.0 999.1 +20.0 +27.2
ЮЗ 3
{4}
16 км 8/8 930 м +27.8 +18.3 56 +33 +33 очень
душно
1017.2 998.1
ЮЗ 2 16 км 8/8 1050 м +27.8 +17.8 55 +32 +34 душно 1016.4 997.4
ЮЗ 1 16 км 8/8 1050 м +27.8 +17.8 55 +32 +34 душно 1016.1 997.1
Ю 1 16 км 8/8 1050 м
[Ci]
+28.3 +17.8 53 +33 +34 очень
душно
1015.9 996.7
ЮВ 2 16 км 8/8 1230 м +27.2 +18.3 58 +32 +32 очень
душно
1016.0 997.1
Ю 1 16 км 8/8 1170 м +26.7 +18.3 60 +31 +31 душно 1016.3 997.1 +26.7 +28.3
Местоположение метеостанции Dallas / Fort Worth International Airport: широта 32.8974 долгота -97.0220 высота над уровнем моря 165 м.
В архиве по умолчанию представлена погода в Далласе за последние 1-2 суток. Обновление информации о фактической погоде в базе происходит ежечасно! Архивные данные за месяц целиком и за предыдущие месяцы Вы можете получить, выбрав интересующий диапазон дат из раскрывающегося списка и нажав кнопку "Ввод!".
Внимание! Архив погоды МЕТАР в базе сайта по станциям, не включенным в климатический монитор, хранится не более 60 дней. Нет смысла пытаться выбрать более раннюю дату.
*Определитесь, кто Вы:
Внимание! Время в таблицах - местное (без учета летнего времени). Для получения всемирного времени необходимо вычесть поправку, которая равна -6 ч.
Смотрите также архив погоды в соседних городах и на ближайших метеорологических станциях:
Партнеры нашего сайта:      
Пояснения к столбцам:
  • Ветер - указаны скорость ветра в м/с - средняя за 10 мин, порывы в срок и между сроками (в фигурных скобках) и направление, откуда дует ветер: С - северный,
  • СВ - северо-восточный, В - восточный, ЮВ - юго-восточный, Ю - южный, ЮЗ - юго-западный, З - западный, СЗ - северо-западный.
  • Видимость - горизонтальная дальность видимости в метрах или километрах. При видимости от 1 до 10 км при отсутствии осадков обычно наблюдается дымка, при ухудшении видимости до 1 км и менее - туман. В сухую погоду видимость может ухудшаться дымом, пылью или мглою.
  • Явления - указаны атмосферные явления, наблюдавшиеся в срок или в последний час перед сроком; фигурными скобками обозначены явления, наблюдавшиеся между сроками (за 1-3 часа до срока); квадратными скобками обозначены град или гололедные отложения с указанием их диаметра в мм.
  • Облачность - указаны через наклонную черту общая и нижняя облачность в баллах и высота нижней границы облаков в метрах; квадратными скобками обозначены формы облаков: Ci - перистые, Cs - перисто-слоистые, Cc - перисто-кучевые, Ac - высококучевые, As - высокослоистые, Sc - слоисто-кучевые, Ns - слоисто-дождевые, Cu - кучевые, Cb - кучево-дождевые. Подробнее классификацию облаков см. в Атласе облаков (PDF).
  • T - Температура воздуха - температура, измеренная на высоте 2 м над землей.
  • Td - Температура точки росы - температура, при понижении до которой содержащийся в воздухе водяной пар достигнет насыщения.
  • f - Относительная влажность воздуха - влажноcть воздуха, измеренная на высоте 2 м над землей.
  • Te - Эффективная температура - температура, которую ощущает одетый по сезону человек в тени. Характеристика душности погоды. При расчете учитывается влияние влажности воздуха и скорости ветра на теплоощущения человека.
  • Tes - Эффективная температура на солнце - температура, которую ощущает человек, с поправкой на солнечный нагрев. Характеристика знойности погоды. Зависит от высоты солнца над горизонтом, облачности и скорости ветра. Ночью, в пасмурную погоду, а также при ветре 12 м/с и более поправка равна нулю.
  • P - Атмосферное давление - приведенное к уровню моря атмосферное давление.
  • Po - Атмосферное давление - измеренное на уровне метеостанции атмосферное давление.
  • Tmin - Минимальная температура - минимум температуры воздуха на высоте 2 м над землей.
  • Tmax - Максимальная температура - максимум температуры воздуха на высоте 2 м над землей.
  • R - Количество осадков - Количество выпавших осадков за период времени, мм. При наведении курсора мыши на число - период времени, за который выпало указанное количество осадков.
  • R24 - Количество осадков - Количество выпавших осадков за 24 часа, мм.
  • S - Снежный покров - Высота снежного покрова, см. При наведении курсора мыши на число - состояние снежного покрова и степень покрытия местности в баллах.